Wind_Speed
9 5 14 11 14 6 5 4 5 4 2 4 7 10 13 20 11 22 32 34 33 30 24 22 28 30 31 31 30 29 29 29 27 26 24 20 16 13 11 9 7 6 4 2
3 19 9 9 6 6 5 6 5 3 3 4 4 11 14 8 15 24 30 34 39 37 32 26 25 32 34 33 33 32 31 30 29 26 22 19 15 14 13 11 9 8 6 4
15 1 13 12 8 12 8 7 5 4 2 2 5 7 11 7 15 28 32 41 42 43 39 30 30 29 35 36 36 35 33 32 29 27 25 22 20 18 18 14 12 10 8 5
11 6 13 8 15 14 13 9 5 3 3 4 1 6 6 6 9 8 25 27 31 33 34 33 32 30 35 35 34 35 34 32 30 28 28 25 22 18 15 12 12 12 10 7
10 12 12 11 12 18 8 9 11 6 3 2 3 2 7 3 7 15 17 27 33 32 27 27 34 34 32 32 32 35 35 33 31 30 28 26 22 17 14 16 15 14 12 10
7 4 12 8 6 18 8 8 6 5 3 3 8 7 5 6 10 9 8 16 18 16 21 25 29 32 32 33 32 34 36 34 32 31 30 27 23 20 19 18 17 16 14 12
4 4 3 6 7 5 5 10 2 2 1 7 1 5 14 9 10 9 8 11 7 11 16 19 26 33 35 37 34 34 36 36 34 32 30 28 24 22 19 16 16 17 16 14
12 6 12 6 8 11 9 10 6 7 5 3 3 8 7 14 18 11 12 16 15 6 11 16 22 31 36 38 37 35 37 36 34 33 30 28 26 23 19 16 16 16 14 13
10 11 5 9 5 14 8 12 7 6 2 3 5 7 9 12 14 7 12 14 17 11 9 13 21 26 32 38 39 38 37 35 35 33 29 28 28 25 21 17 16 16 16 15
1 1 6 6 5 4 15 10 4 2 5 4 5 6 6 5 10 7 6 10 11 12 12 12 16 22 28 33 36 37 35 32 32 31 28 28 28 24 21 19 18 19 18 17
1 2 3 7 11 15 5 13 4 5 4 5 2 6 9 17 14 10 7 7 9 10 11 11 14 17 21 26 32 35 34 33 32 30 29 28 29 26 23 20 19 20 18 17
16 1 4 17 6 1 4 7 5 6 9 2 3 6 3 9 6 4 4 5 10 11 9 10 12 14 18 21 26 32 33 32 31 30 29 28 29 28 25 22 21 21 19 18
12 7 3 3 4 0 9 8 21 4 4 10 7 7 3 2 6 2 4 6 8 10 10 11 11 13 15 19 23 28 30 30 30 30 29 29 31 30 27 24 23 22 21 20
4 6 18 15 18 6 5 17 13 6 4 6 18 2 0 2 4 5 8 8 10 10 10 10 10 11 13 16 19 23 26 27 28 30 30 31 34 31 28 25 24 24 23 21
7 3 16 15 5 17 17 17 15 19 27 10 14 7 7 6 4 7 9 10 11 9 9 8 8 8 10 14 17 20 22 25 28 30 31 32 33 31 28 27 25 25 24 22
8 5 9 2 16 9 15 18 17 15 19 15 5 3 3 1 4 6 9 8 7 6 4 1 5 7 9 12 15 18 22 25 27 29 31 33 34 32 30 28 26 26 25 23
2 5 8 3 7 15 9 19 22 22 8 23 14 11 5 3 6 4 2 1 2 1 2 4 8 9 9 10 12 16 19 23 26 28 31 34 34 33 31 29 28 27 26 25
5 3 1 6 6 8 3 4 10 22 16 21 11 5 8 15 24 7 7 7 5 9 8 7 9 9 8 8 12 13 18 21 25 28 31 34 34 34 32 31 29 28 28 27
7 5 1 3 6 8 4 3 1 11 21 16 7 15 6 5 3 24 8 9 12 14 16 19 16 12 10 10 10 14 17 22 26 31 33 35 36 35 34 34 32 30 29 28
13 10 7 4 4 5 4 5 8 0 17 8 9 7 6 9 8 14 27 28 24 19 18 20 25 25 26 22 17 19 20 23 29 32 34 35 36 36 36 34 32 30 30 27
10 11 13 10 7 6 8 6 3 7 2 6 14 11 9 5 9 8 13 17 22 21 20 17 19 21 18 17 17 20 24 25 27 29 33 35 36 37 36 35 34 32 31 29
9 10 8 9 12 16 6 4 4 5 5 0 7 11 9 6 7 9 13 19 19 17 19 21 22 20 21 20 21 24 26 24 28 30 32 35 37 37 37 37 35 33 32 31
4 8 8 10 7 7 24 23 24 17 18 22 15 11 10 12 16 20 20 21 19 17 14 17 23 24 27 27 26 28 26 30 31 31 32 34 36 38 38 38 38 37 35 34
6 10 9 7 10 10 14 31 36 35 31 35 38 22 14 17 19 22 26 21 20 18 16 17 16 17 21 25 28 27 28 29 30 31 32 34 37 38 38 39 39 39 39 38
10 3 7 10 10 16 23 27 33 39 45 42 38 35 20 22 28 23 25 27 25 29 28 23 23 24 23 24 24 26 26 27 28 30 33 34 36 38 39 40 40 39 38 37
15 19 11 10 18 22 29 35 43 39 39 39 33 39 38 40 36 32 25 27 24 25 24 24 25 28 28 27 26 26 26 29 28 30 34 37 38 39 40 41 40 39 36 35
Wind_Direction
187 172 208 186 190 189 158 194 211 229 241 168 225 253 258 271 266 266 271 272 270 263 256 248 237 230 227 223 220 216 214 212 213 212 214 215 215 209 212 213 222 222 214 191
144 226 194 184 195 176 168 183 220 282 264 172 258 264 270 253 256 250 254 262 264 263 258 245 237 228 226 222 218 215 213 213 213 217 219 220 214 208 209 213 219 216 213 211
200 239 168 181 180 200 212 191 186 198 2 264 327 272 255 265 243 260 254 257 261 259 256 243 233 229 223 220 217 214 213 212 213 214 213 212 211 210 211 209 215 213 207 209
234 197 180 179 210 185 215 180 180 215 117 236 119 283 289 261 269 234 256 250 251 251 252 244 230 226 220 220 218 216 215 213 214 213 214 215 217 217 214 211 214 211 208 204
214 172 172 204 209 181 214 159 189 169 176 6 204 302 271 274 273 260 261 253 253 250 252 239 223 225 223 220 217 215 214 213 215 214 215 215 215 216 213 208 211 209 207 204
212 213 194 200 149 179 137 102 67 60 97 281 194 184 234 215 215 251 256 264 264 253 244 236 224 218 218 218 216 213 211 214 215 214 214 214 214 212 210 209 211 207 204 206
143 205 226 157 116 153 158 141 51 16 356 233 232 188 251 255 256 232 263 285 327 252 227 216 210 209 212 215 214 210 210 213 214 214 214 212 210 213 215 217 216 211 207 204
184 200 184 192 179 169 175 168 151 182 201 196 126 229 249 236 261 253 255 265 278 276 217 213 210 209 212 213 213 208 208 212 212 213 213 211 209 210 212 215 216 214 209 203
193 233 154 186 154 150 195 202 148 103 19 73 208 282 293 266 268 243 236 249 252 255 231 220 210 210 212 213 213 209 208 211 211 212 211 210 209 208 208 208 208 208 205 203
256 224 198 169 116 232 185 143 154 10 139 228 261 275 233 278 263 270 252 223 228 226 214 201 198 205 211 215 215 211 212 214 212 212 212 211 210 206 206 207 207 205 204 202
282 182 341 140 207 178 147 188 172 125 163 175 198 253 216 220 221 218 233 224 221 208 203 196 194 202 213 215 215 212 211 211 213 214 212 211 207 205 204 207 207 207 204 203
199 174 169 204 196 127 146 173 156 168 218 219 153 266 235 238 275 204 201 183 218 211 199 197 195 200 206 211 213 211 211 212 213 214 212 211 205 204 205 204 205 204 203 202
197 201 140 60 318 229 201 201 197 110 99 203 173 248 348 6 62 52 218 157 162 191 191 189 195 198 204 209 211 212 214 215 213 212 212 210 204 204 203 202 202 202 201 201
247 210 216 215 213 138 200 203 203 181 175 195 223 169 179 206 77 62 79 114 125 131 153 170 190 204 206 210 213 214 214 214 213 211 211 209 204 203 202 201 202 202 202 203
21 284 218 226 235 196 209 209 194 205 221 192 227 180 262 308 144 139 140 115 110 121 136 155 182 203 210 212 213 213 213 211 209 211 211 208 204 204 203 202 202 202 204 204
2 323 350 38 251 216 215 206 199 220 225 245 120 267 236 112 58 60 87 99 87 75 85 144 230 228 234 228 224 215 212 212 212 211 209 205 204 206 205 204 204 203 203 203
34 12 7 289 348 231 237 208 201 217 201 219 219 206 295 206 223 171 153 226 175 150 262 276 274 273 266 257 242 230 222 215 213 211 206 204 205 207 207 207 207 206 205 204
130 82 37 293 321 227 319 335 222 219 221 228 238 164 206 246 273 267 267 305 301 299 306 315 307 300 309 270 249 233 228 221 216 212 209 208 208 209 209 210 209 208 207 207
167 131 250 259 311 315 259 298 247 206 234 227 218 230 187 162 297 281 262 294 297 298 296 298 302 317 313 286 260 242 228 223 219 216 212 210 210 211 210 211 210 209 209 209
190 196 178 178 268 242 275 170 175 93 255 229 195 188 157 141 220 249 277 294 304 307 306 299 294 293 285 280 262 244 237 229 226 220 216 213 213 213 213 213 213 211 211 211
186 194 206 215 227 260 269 305 329 156 333 60 120 121 130 164 223 244 265 281 290 287 290 291 297 301 293 272 267 253 244 243 240 228 222 218 216 216 215 214 214 213 212 211
176 179 197 205 207 232 235 287 209 199 162 128 119 122 145 213 239 249 280 302 298 287 270 266 267 269 282 285 286 275 256 261 243 232 226 222 219 217 215 215 214 213 212 212
242 215 212 200 209 210 209 231 246 255 268 277 266 245 209 229 255 279 286 297 283 275 282 272 266 262 265 272 271 273 274 255 243 234 227 224 221 219 218 215 213 212 211 213
217 220 235 248 246 249 240 220 238 246 253 268 276 262 223 243 269 280 281 280 263 270 279 282 293 292 283 276 266 264 267 259 246 235 227 223 220 218 217 216 215 214 213 213
237 120 204 232 237 256 255 249 253 251 250 252 251 256 243 255 266 260 271 276 266 276 271 276 285 290 298 300 277 260 258 248 243 231 226 222 218 217 215 215 216 216 219 221
226 227 220 233 232 237 248 241 243 250 253 246 242 257 263 269 268 265 263 263 259 266 276 279 277 279 289 293 295 257 246 245 242 230 222 219 216 213 212 212 211 214 219 223
Height
1475 1481 1473 1474 1474 1476 1481 1486 1484 1481 1475 1477 1479 1475 1464 1460 1462 1461 1456 1455 1455 1455 1459 1462 1464 1468 1472 1477 1481 1485 1489 1493 1497 1501 1504 1507 1510 1513 1514 1514 1515 1514 1514 1514
1476 1462 1466 1470 1474 1476 1478 1482 1482 1479 1476 1478 1476 1473 1460 1459 1453 1450 1448 1448 1446 1447 1451 1455 1458 1461 1464 1469 1475 1480 1485 1489 1494 1498 1503 1506 1509 1511 1512 1512 1513 1514 1514 1515
1454 1455 1461 1466 1471 1475 1477 1477 1480 1476 1476 1476 1477 1472 1458 1446 1445 1439 1438 1436 1437 1437 1441 1447 1451 1453 1458 1462 1467 1473 1479 1484 1489 1494 1499 1503 1505 1508 1509 1510 1512 1513 1513 1514
1458 1454 1457 1460 1461 1465 1473 1470 1474 1477 1481 1488 1477 1481 1457 1445 1441 1434 1426 1427 1426 1428 1432 1438 1444 1447 1450 1457 1464 1471 1475 1481 1486 1491 1495 1499 1502 1505 1508 1510 1511 1512 1513 1514
1444 1449 1455 1458 1446 1457 1457 1464 1471 1476 1481 1481 1479 1487 1455 1446 1441 1427 1415 1416 1418 1422 1426 1429 1435 1440 1447 1453 1458 1465 1472 1477 1482 1487 1491 1496 1500 1503 1506 1507 1509 1510 1512 1513
1441 1441 1441 1438 1445 1451 1457 1465 1474 1483 1488 1508 1474 1475 1452 1440 1427 1417 1408 1411 1413 1415 1417 1423 1429 1436 1442 1448 1454 1461 1468 1474 1479 1483 1487 1492 1498 1501 1503 1505 1507 1509 1510 1512
1440 1440 1436 1436 1446 1452 1451 1459 1504 1505 1520 1484 1471 1474 1426 1421 1415 1410 1409 1408 1409 1410 1412 1416 1421 1428 1435 1441 1448 1456 1463 1468 1474 1479 1484 1489 1494 1498 1501 1504 1506 1508 1510 1511
1431 1449 1430 1426 1429 1437 1451 1450 1472 1480 1490 1466 1473 1457 1426 1409 1401 1404 1406 1407 1408 1409 1410 1414 1418 1424 1429 1435 1442 1449 1456 1463 1469 1475 1481 1487 1491 1495 1499 1502 1505 1508 1510 1511
1420 1421 1415 1419 1423 1425 1447 1443 1446 1471 1500 1475 1458 1440 1418 1404 1400 1399 1401 1403 1404 1407 1409 1411 1415 1420 1425 1431 1437 1444 1451 1459 1465 1472 1478 1484 1489 1493 1496 1500 1504 1507 1510 1511
1409 1419 1414 1418 1420 1424 1422 1431 1448 1468 1486 1475 1451 1445 1420 1403 1398 1395 1397 1399 1402 1405 1407 1409 1413 1418 1423 1428 1435 1443 1450 1457 1463 1469 1475 1480 1487 1492 1496 1498 1502 1504 1507 1510
1410 1412 1418 1414 1416 1412 1427 1426 1432 1437 1449 1452 1468 1429 1406 1393 1390 1391 1392 1397 1400 1404 1407 1409 1413 1417 1421 1426 1432 1440 1447 1453 1460 1466 1471 1476 1482 1489 1493 1496 1500 1503 1506 1508
1400 1410 1419 1408 1407 1408 1413 1414 1423 1428 1446 1455 1447 1426 1391 1391 1390 1391 1393 1395 1396 1401 1406 1410 1413 1417 1420 1424 1430 1437 1444 1449 1456 1462 1468 1473 1479 1484 1489 1493 1497 1500 1503 1506
1397 1403 1418 1420 1413 1409 1410 1408 1405 1419 1424 1434 1433 1408 1393 1392 1390 1391 1392 1394 1395 1399 1404 1409 1413 1417 1420 1423 1428 1434 1441 1446 1452 1458 1464 1469 1474 1479 1485 1489 1493 1497 1500 1503
1398 1390 1386 1381 1381 1394 1409 1400 1403 1411 1429 1409 1399 1402 1391 1392 1394 1395 1396 1396 1397 1400 1405 1410 1413 1417 1420 1423 1427 1432 1437 1443 1449 1454 1459 1464 1469 1475 1481 1486 1489 1493 1497 1500
1406 1388 1386 1383 1384 1383 1389 1394 1401 1404 1390 1408 1390 1414 1400 1392 1396 1397 1400 1398 1399 1402 1406 1410 1413 1415 1418 1421 1425 1429 1434 1439 1445 1450 1455 1460 1467 1473 1477 1482 1486 1490 1494 1498
1413 1402 1397 1387 1387 1391 1388 1389 1397 1401 1397 1400 1411 1414 1394 1399 1398 1397 1396 1400 1401 1404 1408 1412 1414 1416 1418 1420 1423 1427 1432 1437 1442 1446 1451 1457 1463 1469 1475 1479 1484 1488 1492 1495
1416 1418 1419 1400 1398 1390 1393 1381 1382 1383 1391 1389 1404 1394 1393 1396 1398 1400 1402 1404 1406 1408 1412 1414 1416 1416 1417 1420 1423 1426 1430 1435 1439 1443 1448 1454 1460 1466 1472 1477 1481 1485 1489 1493
1411 1420 1424 1416 1403 1382 1382 1381 1378 1377 1378 1384 1387 1391 1393 1394 1391 1395 1399 1401 1405 1409 1411 1413 1414 1415 1416 1418 1421 1424 1428 1432 1436 1440 1445 1451 1456 1462 1468 1473 1477 1482 1487 1490
1402 1413 1425 1424 1412 1396 1382 1381 1379 1378 1372 1374 1382 1387 1390 1394 1397 1393 1396 1400 1404 1406 1408 1409 1412 1413 1414 1416 1418 1421 1424 1428 1432 1435 1440 1446 1452 1458 1463 1468 1473 1478 1483 1487
1399 1404 1413 1422 1417 1405 1380 1375 1374 1380 1375 1371 1376 1382 1388 1392 1400 1390 1393 1395 1398 1400 1402 1403 1405 1407 1410 1413 1415 1417 1419 1423 1425 1430 1435 1442 1448 1453 1458 1464 1470 1475 1480 1484
1401 1405 1408 1410 1410 1405 1385 1378 1374 1385 1384 1373 1375 1382 1386 1391 1392 1395 1395 1395 1395 1397 1398 1398 1399 1402 1405 1408 1410 1412 1415 1417 1420 1427 1432 1438 1443 1448 1454 1459 1464 1471 1476 1480
1394 1398 1396 1399 1404 1401 1381 1380 1383 1372 1374 1376 1379 1383 1388 1392 1391 1394 1396 1395 1395 1395 1396 1397 1398 1400 1402 1404 1406 1408 1409 1412 1415 1420 1427 1432 1438 1443 1449 1454 1460 1466 1471 1475
1392 1377 1377 1373 1371 1366 1370 1373 1373 1371 1369 1372 1374 1379 1383 1387 1389 1390 1392 1394 1393 1392 1393 1393 1393 1394 1395 1398 1400 1401 1402 1405 1409 1413 1419 1425 1432 1437 1443 1449 1454 1460 1465 1469
1375 1371 1372 1373 1368 1369 1369 1368 1366 1367 1364 1363 1365 1370 1376 1379 1380 1382 1385 1387 1388 1388 1388 1388 1388 1388 1389 1391 1392 1394 1395 1398 1402 1407 1412 1418 1424 1431 1437 1444 1449 1453 1457 1462
1357 1359 1366 1361 1361 1361 1363 1365 1363 1360 1360 1356 1358 1360 1365 1371 1373 1373 1375 1377 1380 1382 1382 1381 1380 1381 1382 1383 1383 1385 1387 1390 1394 1400 1405 1411 1418 1425 1431 1438 1443 1448 1454 1458
1343 1344 1346 1341 1335 1335 1335 1348 1351 1348 1347 1349 1348 1347 1354 1360 1361 1362 1360 1367 1370 1374 1375 1374 1374 1374 1376 1376 1376 1377 1380 1383 1387 1392 1397 1403 1410 1418 1425 1432 1438 1443 1450 1456